Previsão horária em Allieres

Hoje, 16 Junho, Quarta-feira

Tempo Temperatura Precipitação Vento Pressão Humidade
00:00 +19°C° 0 mm 2 m/s 718 mmHg 79%
01:00 +19°C° 0 mm 2 m/s 718 mmHg 77%
02:00 +19°C° 0 mm 2 m/s 717 mmHg 75%
03:00 +18°C° 0 mm 2 m/s 717 mmHg 73%
04:00 +19°C° 0 mm 2 m/s 717 mmHg 71%
05:00 +20°C° 0 mm 2 m/s 717 mmHg 70%
06:00 +21°C° 0 mm 2 m/s 717 mmHg 68%
07:00 +25°C° 0 mm 2 m/s 717 mmHg 59%
08:00 +27°C° 0 mm 2 m/s 717 mmHg 51%
09:00 +30°C° 0 mm 2 m/s 717 mmHg 42%
10:00 +31°C° 0 mm 2 m/s 716 mmHg 38%
11:00 +34°C° 0 mm 3 m/s 716 mmHg 34%
12:00 +35°C° 0 mm 3 m/s 716 mmHg 30%
13:00 +35°C° 0 mm 3 m/s 715 mmHg 33%
14:00 +34°C° 0 mm 3 m/s 715 mmHg 35%
15:00 +33°C° 0 mm 4 m/s 715 mmHg 37%
16:00 +31°C° 0 mm 3 m/s 715 mmHg 44%
17:00 +29°C° 0 mm 3 m/s 714 mmHg 51%
18:00 +27°C° 0 mm 3 m/s 714 mmHg 58%
19:00 +25°C° 0 mm 3 m/s 715 mmHg 61%
20:00 +22°C° 0 mm 3 m/s 715 mmHg 65%
21:00 +21°C° 0 mm 2 m/s 715 mmHg 68%
22:00 +20°C° 0 mm 2 m/s 716 mmHg 72%
23:00 +19°C° 0 mm 2 m/s 716 mmHg 76%

Amanhã, 17 Junho, Quinta-feira

Tempo Temperatura Precipitação Vento Pressão Humidade
00:00 +18°C° 0 mm 2 m/s 716 mmHg 80%
01:00 +18°C° 0 mm 2 m/s 716 mmHg 79%
02:00 +18°C° 0 mm 2 m/s 715 mmHg 79%
03:00 +18°C° 0 mm 2 m/s 715 mmHg 78%
04:00 +18°C° 0 mm 2 m/s 715 mmHg 77%
05:00 +19°C° 0 mm 2 m/s 714 mmHg 76%
06:00 +20°C° 0 mm 2 m/s 714 mmHg 75%
07:00 +21°C° 0 mm 2 m/s 714 mmHg 72%
08:00 +21°C° 0 mm 2 m/s 714 mmHg 70%
09:00 +23°C° 0 mm 2 m/s 714 mmHg 67%
10:00 +23°C° 0.2 mm 2 m/s 714 mmHg 69%
11:00 +23°C° 0.2 mm 2 m/s 714 mmHg 70%
12:00 +23°C° 0.2 mm 2 m/s 714 mmHg 71%
13:00 +23°C° 0.5 mm 2 m/s 714 mmHg 71%
14:00 +24°C° 0.5 mm 2 m/s 714 mmHg 70%
15:00 +24°C° 0.5 mm 1 m/s 714 mmHg 69%
16:00 +23°C° 2 mm 2 m/s 713 mmHg 76%
17:00 +21°C° 2 mm 2 m/s 713 mmHg 83%
18:00 +20°C° 2 mm 2 m/s 713 mmHg 90%
19:00 +19°C° 3 mm 2 m/s 713 mmHg 92%
20:00 +18°C° 3 mm 2 m/s 714 mmHg 94%
21:00 +18°C° 3 mm 1 m/s 715 mmHg 96%
22:00 +18°C° 0.1 mm 1 m/s 716 mmHg 96%
23:00 +18°C° 0.1 mm 1 m/s 716 mmHg 96%

Depois de amanhã, 18 Junho, Sexta-feira

Tempo Temperatura Precipitação Vento Pressão Humidade
00:00 +18°C° 0.1 mm 1 m/s 716 mmHg 96%
01:00 +18°C° 0 mm 1 m/s 716 mmHg 96%
02:00 +18°C° 0 mm 1 m/s 716 mmHg 95%
03:00 +18°C° 0 mm 1 m/s 716 mmHg 95%
04:00 +18°C° 0 mm 1 m/s 716 mmHg 94%
05:00 +18°C° 0 mm 1 m/s 717 mmHg 94%
06:00 +18°C° 0 mm 1 m/s 717 mmHg 93%
07:00 +20°C° 0 mm 1 m/s 717 mmHg 86%
08:00 +21°C° 0 mm 1 m/s 717 mmHg 79%
09:00 +22°C° 0 mm 1 m/s 718 mmHg 72%
10:00 +24°C° 0 mm 1 m/s 718 mmHg 66%
11:00 +25°C° 0 mm 2 m/s 718 mmHg 60%
12:00 +26°C° 0 mm 2 m/s 718 mmHg 54%
13:00 +27°C° 0 mm 2 m/s 718 mmHg 53%
14:00 +27°C° 0 mm 2 m/s 717 mmHg 52%
15:00 +27°C° 0 mm 2 m/s 717 mmHg 52%
16:00 +26°C° 0 mm 2 m/s 717 mmHg 59%
17:00 +25°C° 0 mm 1 m/s 717 mmHg 66%
18:00 +24°C° 0 mm 1 m/s 717 mmHg 73%
19:00 +23°C° 0 mm 1 m/s 717 mmHg 78%
20:00 +21°C° 0 mm 2 m/s 717 mmHg 82%
21:00 +19°C° 0 mm 2 m/s 717 mmHg 87%
22:00 +19°C° 0 mm 2 m/s 717 mmHg 87%
23:00 +19°C° 0 mm 2 m/s 717 mmHg 88%

19 Junho, Sábado

Tempo Temperatura Precipitação Vento Pressão Humidade
00:00 +18°C° 0 mm 2 m/s 716 mmHg 88%
01:00 +18°C° 0 mm 2 m/s 716 mmHg 87%
02:00 +18°C° 0 mm 2 m/s 716 mmHg 85%
03:00 +18°C° 0 mm 2 m/s 716 mmHg 84%
04:00 +19°C° 0 mm 2 m/s 716 mmHg 82%
05:00 +20°C° 0 mm 2 m/s 716 mmHg 80%
06:00 +20°C° 0 mm 2 m/s 716 mmHg 78%
07:00 +21°C° 0.2 mm 2 m/s 716 mmHg 77%
08:00 +23°C° 0.2 mm 2 m/s 716 mmHg 75%
09:00 +24°C° 0.2 mm 2 m/s 716 mmHg 74%
10:00 +25°C° 0.3 mm 2 m/s 716 mmHg 67%
11:00 +27°C° 0.3 mm 3 m/s 716 mmHg 61%
12:00 +28°C° 0.3 mm 3 m/s 716 mmHg 54%
13:00 +28°C° 0.7 mm 4 m/s 716 mmHg 57%
14:00 +28°C° 0.7 mm 4 m/s 715 mmHg 59%
15:00 +27°C° 0.7 mm 5 m/s 715 mmHg 62%
16:00 +27°C° 0.1 mm 4 m/s 715 mmHg 62%
17:00 +27°C° 0.1 mm 4 m/s 715 mmHg 61%
18:00 +26°C° 0.1 mm 4 m/s 715 mmHg 61%
19:00 +24°C° 0 mm 3 m/s 715 mmHg 70%
20:00 +21°C° 0 mm 3 m/s 715 mmHg 78%
21:00 +19°C° 0 mm 2 m/s 715 mmHg 87%
22:00 +19°C° 0.1 mm 2 m/s 715 mmHg 88%
23:00 +19°C° 0.1 mm 1 m/s 714 mmHg 90%

20 Junho, Domingo

Tempo Temperatura Precipitação Vento Pressão Humidade
00:00 +19°C° 0.1 mm 1 m/s 714 mmHg 91%
01:00 +19°C° 0.1 mm 1 m/s 714 mmHg 92%
02:00 +19°C° 0.1 mm 1 m/s 714 mmHg 92%
03:00 +19°C° 0.1 mm 1 m/s 714 mmHg 93%
04:00 +19°C° 0.1 mm 1 m/s 714 mmHg 92%
05:00 +19°C° 0.1 mm 1 m/s 714 mmHg 90%
06:00 +20°C° 0.1 mm 1 m/s 714 mmHg 89%
07:00 +21°C° 0 mm 1 m/s 714 mmHg 79%
08:00 +23°C° 0 mm 1 m/s 715 mmHg 70%
09:00 +25°C° 0 mm 2 m/s 715 mmHg 60%
10:00 +26°C° 0 mm 2 m/s 715 mmHg 55%
11:00 +27°C° 0 mm 2 m/s 714 mmHg 50%
12:00 +28°C° 0 mm 3 m/s 714 mmHg 46%
13:00 +28°C° 0 mm 3 m/s 714 mmHg 45%
14:00 +29°C° 0 mm 3 m/s 714 mmHg 44%
15:00 +29°C° 0 mm 3 m/s 714 mmHg 43%
16:00 +27°C° 0.2 mm 2 m/s 714 mmHg 55%
17:00 +24°C° 0.2 mm 2 m/s 714 mmHg 67%
18:00 +21°C° 0.2 mm 2 m/s 714 mmHg 80%
19:00 +21°C° 0.1 mm 1 m/s 715 mmHg 82%
20:00 +20°C° 0.1 mm 1 m/s 715 mmHg 84%
21:00 +18°C° 0.1 mm 1 m/s 716 mmHg 86%
22:00 +18°C° 0 mm 1 m/s 715 mmHg 86%
23:00 +16°C° 0 mm 1 m/s 715 mmHg 87%

21 Junho, Segunda-feira

Tempo Temperatura Precipitação Vento Pressão Humidade
00:00 +16°C° 0 mm 1 m/s 715 mmHg 87%
01:00 +15°C° 0 mm 1 m/s 715 mmHg 87%
02:00 +15°C° 0 mm 1 m/s 715 mmHg 87%
03:00 +15°C° 0 mm 1 m/s 715 mmHg 87%
04:00 +16°C° 0 mm 1 m/s 715 mmHg 86%
05:00 +16°C° 0 mm 1 m/s 715 mmHg 85%
06:00 +18°C° 0 mm 1 m/s 715 mmHg 83%
07:00 +19°C° 0 mm 1 m/s 715 mmHg 76%
08:00 +20°C° 0 mm 2 m/s 716 mmHg 69%
09:00 +21°C° 0 mm 2 m/s 716 mmHg 62%
10:00 +21°C° 0.1 mm 2 m/s 716 mmHg 65%
11:00 +21°C° 0.1 mm 2 m/s 716 mmHg 67%
12:00 +21°C° 0.1 mm 3 m/s 716 mmHg 69%
13:00 +19°C° 0.2 mm 2 m/s 716 mmHg 75%
14:00 +18°C° 0.2 mm 2 m/s 717 mmHg 82%
15:00 +17°C° 0.2 mm 2 m/s 717 mmHg 88%
16:00 +17°C° 0.1 mm 2 m/s 717 mmHg 89%
17:00 +16°C° 0.1 mm 2 m/s 717 mmHg 90%
18:00 +16°C° 0.1 mm 2 m/s 718 mmHg 91%
19:00 +16°C° 0.1 mm 2 m/s 718 mmHg 91%
20:00 +15°C° 0.1 mm 2 m/s 718 mmHg 92%
21:00 +15°C° 0.1 mm 2 m/s 719 mmHg 92%
22:00 +15°C° 0 mm 1 m/s 719 mmHg 91%
23:00 +15°C° 0 mm 1 m/s 718 mmHg 90%
Mostrar mais